OpenBCM V1.08-5-g2f4a (Linux)

Packet Radio Mailbox

IZ3LSV

[San Dona' di P. JN]

 Login: GUEST





  
CX2SA  > KEPS     03.10.25 01:28l 312 Lines 14788 Bytes #57 (0) @ AMSAT
BID : ORB25276.1
Read: GUEST
Subj: 2Line Orbital Elements 25276.AMSAT
Path: IZ3LSV<IK6IHL<IK7NXU<HB9ON<DK0WUE<ZL2BAU<CX2SA
Sent: 251003/0024Z @:CX2SA.SAL.URY.SOAM #:56423 [Salto] FBB7.00e $:ORB25276.1
From: CX2SA@CX2SA.SAL.URY.SOAM
To  : KEPS@AMSAT


QST de W1STR

AMSAT Orbital Elements for Amateur Satellites in TLE Format
>From Orbital Analysis Office
New England Sci-Tech STEM Education Center
Natick MA October 03, 2025
To all radio amateurs


These element sets describe the orbits of various satellites
in use by the amateur radio community. For details see:
www.amsat.org/keplerian-elements-formats/

A daily update of element sets is available at:
www.amsat.org/tle/daily-bulletin.txt
or without bulletin text:
www.amsat.org/tle/dailytle.txt


AO-07
1 07530U 74089B   25275.64844512 -.00000016  00000-0  18983-3 0  9998
2 07530 101.9989 281.1557 0011904 262.8971 218.8241 12.53692074328247
UO-11
1 14781U 84021B   25275.53947066  .00004135  00000-0  43672-3 0  9995
2 14781  97.7686 239.7375 0006719 328.1887  31.8923 14.89776063218752
AO-27
1 22825U 93061C   25275.67214899  .00000374  00000-0  15965-3 0  9998
2 22825  98.7248 337.7356 0009239 131.3762 228.8216 14.30838780670171
FO-29
1 24278U 96046B   25275.64861260  .00000052  00000-0  87380-4 0  9999
2 24278  98.5551 154.3018 0350692  44.5305 318.3455 13.53255731438331
NOAA-15
1 25338U 98030A   25275.66292237  .00000439  00000-0  19803-3 0  9999
2 25338  98.5304 297.9993 0010750  28.2901 331.8862 14.27028239424565
GO-32
1 25397U 98043D   25275.40678906  .00000271  00000-0  13728-3 0  9995
2 25397  98.9844 256.9942 0000628 182.3611 177.7564 14.24346761414638
ISS
1 25544U 98067A   25275.46710094  .00015763  00000-0  28741-3 0  9999
2 25544  51.6327 135.3521 0001043 189.2069 170.8900 15.49620641531809
NO-44
1 26931U 01043C   25275.48736693  .00000616  00000-0  26112-3 0  9994
2 26931  67.0511 190.7306 0007060 274.2699  85.7595 14.31795843253555
SO-50
1 27607U 02058C   25275.21863906  .00005016  00000-0  62367-3 0  9992
2 27607  64.5534 206.5788 0067477 310.1430  49.3776 14.82011848226216
CO-55
1 27844U 03031E   25275.48902604  .00000940  00000-0  42742-3 0  9991
2 27844  98.6791 282.3008 0008996 208.1014 151.9680 14.24091019154997
CO-57
1 27848U 03031J   25275.56184575  .00000787  00000-0  36586-3 0  9991
2 27848  98.6820 282.2906 0008597 226.9519 133.0941 14.23412279154721
RS-22
1 27939U 03042A   25275.72779499  .00003541  00000-0  56329-3 0  9995
2 27939  98.3372  88.0566 0011572  11.0503 117.0261 14.72668309177642
CO-58
1 28895U 05043F   25275.39170687  .00004653  00000-0  75764-3 0  9996
2 28895  98.2655  61.3126 0013445 305.6885  54.3069 14.71457484 63821
CO-65
1 32785U 08021C   25275.69644698  .00013021  00000-0  90182-3 0  9999
2 32785  97.7978 247.8821 0009747 170.7007 189.4401 15.05748933946398
CO-66
1 32791U 08021J   25275.51225216  .00033278  00000-0  14581-2 0  9992
2 32791  97.7389 258.4110 0005985 114.8606 245.3252 15.21919777947957
RS-30
1 32953U 08025A   25275.72835922  .00000030  00000-0  14397-3 0  9996
2 32953  82.5049 155.5896 0019241 151.1945 209.0201 12.43168732787704
NOAA-19
1 33591U 09005A   25275.66386955  .00000194  00000-0  12724-3 0  9997
2 33591  98.9861 340.9540 0014383  42.3246 317.9033 14.13414271858105
SRMSAT
1 37841U 11058D   25275.42656122  .00000628  00000-0  19742-3 0  9999
2 37841  19.9710 179.5444 0011690 247.6781 273.5062 14.11474326721354
ZACUBE-1
1 39417U 13066B   25275.74385066  .00014573  00000-0  12178-2 0  9991
2 39417  97.7910 232.2944 0043703  29.2191 331.1462 14.97866604642144
Delfi-N3xt
1 39428U 13066N   25275.67269227  .00022831  00000-0  22152-2 0  9994
2 39428  97.8286 192.1051 0081542 342.7348  17.1099 14.90145607636209
GOMX-1
1 39430U 13066Q   25275.69055696  .00005864  00000-0  90267-3 0  9992
2 39430  97.6696 127.2532 0131134 183.2259 176.8116 14.68131728632113
LO-74
1 39440U 13066AA  25275.75575819  .00009216  00000-0  90656-3 0  9991
2 39440  97.8578 219.6280 0061446 158.0911 202.2956 14.90903626638597
AO-73
1 39444U 13066AE  25275.45218744  .00021243  00000-0  15050-2 0  9991
2 39444  97.7943 237.9917 0040459   1.4692 358.6645 15.04155820640847
DTUSAT-2
1 40030U 14033W   25275.67343716  .00018466  00000-0  11368-2 0  9992
2 40030  98.0686 253.2600 0010247  43.2323 316.9707 15.10017950613759
EO-80
1 40032U 14033Y   25275.42248633  .00018011  00000-0  11072-2 0  9997
2 40032  98.0560 252.4900 0007443 347.3522  12.7518 15.10098438613693
LILACSAT-2
1 40908U 15049K   25275.73661936  .00028345  00000-0  66721-3 0  9999
2 40908  97.5016 299.0483 0010657 104.6171 255.6258 15.41863541555955
IO-86
1 40931U 15052B   25151.18580175  .00001241  00000-0  78118-4 0  9996
2 40931   6.0006  24.0987 0012733 338.8432  21.1169 14.78805930523159
Horyu-4
1 41340U 16012D   25273.75615022  .00064054  00000-0  14025-2 0  9992
2 41340  30.9949  88.0364 0004168 153.0068 207.0796 15.42812094530240
Lapan A3
1 41603U 16040E   25275.72140668  .00008569  00000-0  29039-3 0  9994
2 41603  97.1428 275.9000 0009707 208.2813 151.7903 15.30747964515392
CAS-2T
1 41847U 16066G   25275.66743044  .00004559  00000-0  65230-3 0  9990
2 41847  98.4110 349.0983 0344831 190.0330 169.3856 14.43814347467626
CAS-4B
1 42759U 17034B   25274.22664550  .00909567  37254-3  21631-2 0  9997
2 42759  42.9983 354.2847 0021381  18.4905 341.6745 15.95441092460504
CAS-4A
1 42761U 17034D   25275.52194847  .01062789  61388-3  14512-2 0  9993
2 42761  43.0001 340.8384 0018930  32.9036 327.3019 16.05107336460753
TechnoSat
1 42829U 17042E   25275.49214296  .00008581  00000-0  64736-3 0  9998
2 42829  97.3981  78.8323 0017213 253.3339 106.5997 15.02548729447978
AO-91
1 43017U 17073E   25275.63439605  .00019642  00000-0  95528-3 0  9994
2 43017  97.5069 143.5281 0168079 133.5778 227.9545 15.06784440426524
S-Net D
1 43186U 18014G   25275.69135912  .00013888  00000-0  78691-3 0  9995
2 43186  97.5485 177.4218 0008688 176.5387 183.5905 15.13086423419771
S-Net B
1 43187U 18014H   25275.69830720  .00013237  00000-0  75062-3 0  9992
2 43187  97.5492 177.4058 0009557 172.2870 187.8510 15.13064257419778
S-Net A
1 43188U 18014J   25275.69133728  .00014115  00000-0  79943-3 0  9995
2 43188  97.5500 177.5648 0009378 173.1321 187.0040 15.13092460419774
S-Net C
1 43189U 18014K   25275.70100454  .00012846  00000-0  72843-3 0  9999
2 43189  97.5516 177.6082 0011143 167.2964 192.8550 15.13058367418323
Ten-Koh
1 43677U 18084G   25275.47077963  .00006049  00000-0  47645-3 0  9990
2 43677  98.0767  92.2822 0007391 228.8764 131.1822 15.01168018377475
PO-101
1 43678U 18084H   25275.76943302  .00006018  00000-0  50289-3 0  9996
2 43678  98.1064  96.3790 0007707 258.8220 101.2135 14.98897230377630
QO-100
1 43700U 18090A   25275.50340049  .00000145  00000-0  00000+0 0  9997
2 43700   0.0120 235.6801 0001520 348.3905 354.4690  1.00272948 25094
MinXSS-2
1 43758U 18099A   25275.69722001  .00043340  00000-0  14894-2 0  9994
2 43758  97.4903 342.3169 0011957 110.0837 250.1691 15.29906267374546
AO-95
1 43770U 18099N   25275.66161637  .00024224  00000-0  11383-2 0  9997
2 43770  97.4791 332.5528 0010740 164.6522 195.5041 15.19545941374010
SNUSat 2
1 43782U 18099AA  25275.63452927  .00020305  00000-0  10427-2 0  9996
2 43782  97.4480 328.3086 0013055 113.4892 246.7715 15.16457279373923
SnugLite
1 43784U 18099AC  25275.66604338  .00023340  00000-0  10868-2 0  9997
2 43784  97.4288 328.1644 0004972 110.6624 249.5145 15.19909892374104
ITASat 1
1 43786U 18099AE  25275.64314707  .00016933  00000-0  91903-3 0  9995
2 43786  97.4443 327.4721 0014454 162.8133 197.3591 15.14521200373862
EAGLET 1
1 43790U 18099AJ  25275.69489856  .00011910  00000-0  73274-3 0  9994
2 43790  97.4643 327.0650 0012629 148.7394 211.4589 15.10107729373430
ESEO
1 43792U 18099AL  25275.65885421  .00005032  00000-0  37667-3 0  9994
2 43792  97.4379 318.7156 0013926 127.5826 232.6666 15.03080008373109
JO-97
1 43803U 18099AX  25275.43820561  .00031810  00000-0  13195-2 0  9999
2 43803  97.4543 333.6088 0008484 103.0099 257.2085 15.23772551374246
Suomi 100
1 43804U 18099AY  25275.65255124  .00025537  00000-0  11548-2 0  9990
2 43804  97.4605 332.7559 0013167 106.4196 253.8488 15.20830695374170
ISAT
1 43879U 18111D   25275.70842694  .00056727  00000-0  16445-2 0  9993
2 43879  97.5871 192.9581 0009993 134.7620 225.4438 15.35300160371326
UWE-4
1 43880U 18111E   25275.70336552  .00042204  00000-0  14508-2 0  9999
2 43880  97.5818 190.5336 0011996 151.9902 208.1986 15.29902694371207
Sparrow
1 43881U 18111F   25275.52156970  .00062753  00000-0  17269-2 0  9992
2 43881  97.6038 196.1336 0006779 159.2866 200.8654 15.36926728371403
Prox-1
1 44339U 19036A   25275.62773916  .00024299  00000-0  29108-2 0  9992
2 44339  23.9974  24.7739 0006302 313.2411  46.7561 14.82598823335096
Taurus 1
1 44530U 19059C   25275.69482098  .00019460  00000-0  34329-2 0  9990
2 44530  98.6188  60.7470 0009049  40.3484 319.8389 14.67490895320815
Duchifat 3
1 44854U 19089C   25275.51812837  .00180002  00000-0  19973-2 0  9990
2 44854  36.9382 338.2947 0006256 139.9449 220.1774 15.61409688320884
TO-108
1 44881U 19093C   25275.72731267  .00002833  00000-0  33093-3 0  9990
2 44881  97.7834 348.9300 0013020 208.1743 151.8770 14.85857317313176
FloripaSat 1
1 44885U 19093G   25275.69299730  .00015439  00000-0  12472-2 0  9997
2 44885  97.8118   3.6045 0009949 186.0094 174.1011 14.99874895313996
RS-44
1 44909U 19096E   25275.63610698  .00000031  00000-0  77345-4 0  9995
2 44909  82.5226 150.8597 0218119  26.7978 334.4196 12.79744129269406
UPMSat 2
1 46276U 20061E   25275.65049845  .00890828  43191-3  11540-2 0  9995
2 46276  97.2271 355.7415 0005443 253.1630 106.9055 16.07185245283638
SALSAT
1 46495U 20068K   25275.49046904  .00017835  00000-0  72469-3 0  9996
2 46495  97.8733 259.0355 0012889 118.2569 241.9970 15.24555888276026
